OpenBCM V1.07b12 (Linux)

Packet Radio Mailbox

DB0FHN

[JN59NK Nuernberg]

 Login: GUEST





  
I0OJJ  > KEPS     10.03.25 06:02l 325 Lines 15451 Bytes #999 (0) @ AMSAT
BID : ORB25069.1
Read: DJ6UX GUEST
Subj: 2Line Orbital Elements 25069.AMSAT
Path: DB0FHN<DB0FFL<OE5XBL<OE6XPE<DB0ERF<DK0WUE<PD0LPM<PI8ZTM<I0OJJ
Sent: 250310/0345z @:I0OJJ.ITA.EU [Rome] obcm1.08-6-g5b69
From: I0OJJ @ I0OJJ.ITA.EU (Gustavo)
To:   KEPS @ AMSAT
X-Info: This message was generated automatically


QST de W1STR

AMSAT Orbital Elements for Amateur Satellites in TLE Format
From Orbital Analysis Office
New England Sci-Tech STEM Education Center
Natick, MA March 10, 2025
To all radio amateurs


These element sets describe the orbits of various satellites 
in use by the amateur radio community. For details see:
www.amsat.org/keplerian-elements-formats/

A daily update of element sets is available at:
www.amsat.org/tle/daily-bulletin.txt
or without bulletin text:
www.amsat.org/tle/dailytle.txt


AO-07
1 07530U 74089B   25068.87798519 -.00000010  00000-0  22802-3 0  9997
2 07530 101.9950  72.1611 0011899 297.8330 124.8416 12.53686968302577
UO-11
1 14781U 84021B   25068.48039463  .00003146  00000-0  34124-3 0  9995
2 14781  97.7434  36.7587 0006132 285.3088  74.7451 14.88859972187936
AO-27
1 22825U 93061C   25068.60707002  .00000245  00000-0  11087-3 0  9992
2 22825  98.7490 129.6581 0008814  29.6676 330.5004 14.30744555640561
FO-29
1 24278U 96046B   25068.77575702 -.00000014  00000-0  23028-4 0  9994
2 24278  98.5851 334.7138 0349236 220.2831 137.1954 13.53239606410604
NOAA-15
1 25338U 98030A   25068.81448012  .00000335  00000-0  15582-3 0  9995
2 25338  98.5459  96.1131 0009116 267.0880  92.9258 14.26903686395313
GO-32
1 25397U 98043D   25068.52452675  .00000244  00000-0  12580-3 0  9996
2 25397  98.9613  45.7678 0002313 102.2767 257.8670 14.24268153385181
ISS
1 25544U 98067A   25068.89181685  .00014826  00000-0  26852-3 0  9994
2 25544  51.6353  78.8409 0006401   3.2120 356.8909 15.49852573499764
NO-44
1 26931U 01043C   25068.22387429  .00000494  00000-0  21621-3 0  9999
2 26931  67.0529   6.6143 0005746 266.2876  93.7568 14.31647084223880
SO-50
1 27607U 02058C   25068.54209969  .00002653  00000-0  35323-3 0  9997
2 27607  64.5535 124.5452 0045665 356.5775   3.5011 14.81094883195594
CO-55
1 27844U 03031E   25068.55943890  .00000749  00000-0  34615-3 0  9998
2 27844  98.6795  78.0128 0010882  94.5975 265.6447 14.23860543125542
CO-57
1 27848U 03031J   25068.53564213  .00000649  00000-0  30605-3 0  9992
2 27848  98.6825  78.0638 0010709 109.6714 250.5621 14.23214999125278
RS-22
1 27939U 03042A   25068.86092322  .00002760  00000-0  44870-3 0  9993
2 27939  98.3176 236.1604 0010633 302.7916 193.6374 14.71898244147338
NOAA-18
1 28654U 05018A   25068.81801609  .00000360  00000-0  21429-3 0  9993
2 28654  98.8473 149.3156 0014507  34.1337 326.0765 14.13536483 20787
CO-58
1 28895U 05043F   25068.33432473  .00004266  00000-0  71288-3 0  9991
2 28895  98.2327 211.6445 0014170 236.6553 123.3297 14.70357026 33380
CO-65
1 32785U 08021C   25068.64437888  .00011401  00000-0  85623-3 0  9999
2 32785  97.7769  39.2774 0011428 149.7852 210.4033 15.02722589915331
AAUSAT2
1 32788U 08021F   25068.51374074  .00159694  00000-0  24502-2 0  9990
2 32788  97.6061  61.4903 0004076  90.8839 269.2881 15.53723476918935
CO-66
1 32791U 08021J   25068.43476005  .00025400  00000-0  13612-2 0  9999
2 32791  97.7207  46.6817 0006884 111.3188 248.8779 15.14959101916600
RS-30
1 32953U 08025A   25068.89704507  .00000028  00000-0  13370-3 0  9995
2 32953  82.4990 284.2158 0018679 245.1542 114.7595 12.43159736762143
NOAA-19
1 33591U 09005A   25068.80944036  .00000338  00000-0  20413-3 0  9997
2 33591  99.0085 132.9620 0012812 261.7964  98.1755 14.13304073829141
SRMSAT
1 37841U 11058D   25068.13759102  .00000588  00000-0  17616-3 0  9992
2 37841  19.9734 353.9392 0011881 128.1605   4.1019 14.11378833692038
ZACUBE-1
1 39417U 13066B   25068.41920465  .00012960  00000-0  11633-2 0  9996
2 39417  97.7691  26.0673 0045594   2.9107 357.2370 14.95055381611135
Delfi-N3xt
1 39428U 13066N   25068.74064678  .00015532  00000-0  16539-2 0  9997
2 39428  97.8368 347.5403 0086485 303.7133  55.5860 14.86252601605607
GOMX-1
1 39430U 13066Q   25068.83987009  .00004127  00000-0  64983-3 0  9997
2 39430  97.6974 293.0978 0134954 125.5973 235.7894 14.67007288601951
LO-74
1 39440U 13066AA  25068.83886445  .00008128  00000-0  84608-3 0  9991
2 39440  97.8404  14.1621 0065386 121.5538 239.2085 14.88500417608980
AO-73
1 39444U 13066AE  25068.30868997  .00018676  00000-0  14787-2 0  9998
2 39444  97.7564  30.1238 0040959 341.0989  18.8712 14.99970181609744
DTUSAT-2
1 40030U 14033W   25068.15278017  .00014613  00000-0  10043-2 0  9995
2 40030  98.0459  35.6899 0010644  27.2113 332.9668 15.06009978582473
EO-80
1 40032U 14033Y   25068.17790892  .00015411  00000-0  10564-2 0  9994
2 40032  98.0348  35.4968 0007473 327.0798  32.9962 15.06116139582453
LILACSAT-2
1 40908U 15049K   25068.84619925  .00019233  00000-0  55402-3 0  9992
2 40908  97.5153  87.1249 0011808 124.1162 236.1204 15.35721113524131
IO-86
1 40931U 15052B   25038.81889873  .00001817  00000-0  15548-3 0  9993
2 40931   6.0001 108.1159 0012838 187.7041 172.2889 14.78568669506492
Horyu-4
1 41340U 16012D   25068.23335983  .00036392  00000-0  11724-2 0  9999
2 41340  30.9998  30.5540 0007586 193.9722 166.0712 15.30962173498593
Lapan A3
1 41603U 16040E   25068.83796616  .00006496  00000-0  23427-3 0  9998
2 41603  97.1400  77.0926 0009612 229.7334 130.3067 15.28811154483760
CAS-2T
1 41847U 16066G   25068.82800808  .00003260  00000-0  46960-3 0  9997
2 41847  98.4275 144.0815 0348666  96.0214 268.0818 14.43100474437789
CAS-4B
1 42759U 17034B   25068.67342288  .00068057  00000-0  11689-2 0  9996
2 42759  43.0106 144.5395 0017061   3.8788 356.2202 15.50104787428274
CAS-4A
1 42761U 17034D   25068.63110348  .00068404  00000-0  11496-2 0  9997
2 42761  43.0141 142.6390 0018214   9.9280 350.1937 15.50690676428281
TechnoSat
1 42829U 17042E   25068.46611690  .00007953  00000-0  63216-3 0  9998
2 42829  97.3898 241.6095 0012158 233.1978 126.8132 15.00636585416900
AO-91
1 43017U 17073E   25068.43171142  .00016376  00000-0  86585-3 0  9995
2 43017  97.5443 301.5894 0182045 119.7216 242.2264 15.02297705395362
S-Net D
1 43186U 18014G   25068.72503962  .00010114  00000-0  62117-3 0  9998
2 43186  97.5713 332.6181 0009443 168.2040 191.9412 15.10246936388509
S-Net B
1 43187U 18014H   25068.66306992  .00010331  00000-0  63455-3 0  9993
2 43187  97.5717 332.5243 0010354 164.8390 195.3152 15.10229462388497
S-Net A
1 43188U 18014J   25068.79198201  .00009827  00000-0  60346-3 0  9994
2 43188  97.5726 332.7902 0010226 164.8757 195.2780 15.10251723388511
S-Net C
1 43189U 18014K   25068.73152007  .00010430  00000-0  64036-3 0  9995
2 43189  97.5741 332.7289 0011989 159.8226 200.3479 15.10226943387056
Ten-Koh
1 43677U 18084G   25068.55465149  .00007053  00000-0  57582-3 0  9993
2 43677  98.0938 237.1410 0010080 209.5690 150.4963 14.99711535346448
PO-101
1 43678U 18084H   25068.81141786  .00005354  00000-0  46396-3 0  9994
2 43678  98.0950 241.5020 0008053 225.4784 134.5780 14.97531390346646
QO-100
1 43700U 18090A   25068.54755064  .00000127  00000-0  00000+0 0  9998
2 43700   0.0254 153.8355 0001357 215.1249  21.4205  1.00270802 23264
MinXSS-2
1 43758U 18099A   25068.72812786  .00028732  00000-0  12793-2 0  9992
2 43758  97.5142 134.6762 0014007 119.8625 240.4004 15.21328569342982
AO-95
1 43770U 18099N   25068.11648620  .00015580  00000-0  84753-3 0  9996
2 43770  97.5054 127.3224 0012016 168.5594 191.5913 15.14487916342545
RANGE-A
1 43773U 18099R   25068.59720406  .00009351  00000-0  61632-3 0  9994
2 43773  97.4631 119.6815 0012927 142.2051 218.0087 15.07638494342353
MOVE-II
1 43780U 18099Y   25068.40573458  .00119556  00000-0  24192-2 0  9993
2 43780  97.4783 139.2681 0004086 139.7619 220.3933 15.45989137343437
SNUSat 2
1 43782U 18099AA  25068.12315803  .00012231  00000-0  70781-3 0  9990
2 43782  97.4739 124.8041 0013985 113.3486 246.9217 15.12304844342515
SnugLite
1 43784U 18099AC  25068.69424506  .00018630  00000-0  10044-2 0  9999
2 43784  97.4554 124.7649 0005049 114.6279 245.5479 15.14818163342714
ITASat 1
1 43786U 18099AE  25068.10127976  .00011593  00000-0  69607-3 0  9999
2 43786  97.4707 124.5442 0015719 161.6569 198.5231 15.10961441342485
EAGLET 1
1 43790U 18099AJ  25068.08334700  .00007433  00000-0  48976-3 0  9990
2 43790  97.4908 124.7519 0013557 142.2089 218.0094 15.07713837342126
ESEO
1 43792U 18099AL  25068.68928372  .00004653  00000-0  35895-3 0  9999
2 43792  97.4593 119.7856 0011775 112.9533 247.2936 15.01998559342022
CSIM
1 43793U 18099AM  25068.77707638  .00107832  00000-0  21496-2 0  9994
2 43793  97.4964 141.6940 0005678 108.1874 251.9994 15.46464996343336
JO-97
1 43803U 18099AX  25068.71647186  .00022444  00000-0  11190-2 0  9996
2 43803  97.4795 128.7473 0009172 107.9670 252.2564 15.17512925342825
Suomi 100
1 43804U 18099AY  25068.72870562  .00019161  00000-0  10083-2 0  9996
2 43804  97.4865 128.2847 0014428 108.2169 252.0636 15.15591746342779
ISAT
1 43879U 18111D   25068.26534669  .00033428  00000-0  13562-2 0  9994
2 43879  97.6017 340.9261 0011034 148.4954 211.6946 15.24486515339603
UWE-4
1 43880U 18111E   25068.29572529  .00029183  00000-0  12896-2 0  9998
2 43880  97.5955 340.0098 0013636 163.0128 197.1567 15.21589466339579
Sparrow
1 43881U 18111F   25068.70751615  .00034768  00000-0  13704-2 0  9994
2 43881  97.6145 343.9266 0007131 180.0174 180.1064 15.25478875337751
Prox-1
1 44339U 19036A   25068.03103530  .00018413  00000-0  25216-2 0  9993
2 44339  23.9984 308.5120 0007296  92.6662 267.4669 14.76898929304307
SONATE
1 44400U 19038Q   25068.60626066  .00103033  00000-0  11302-2 0  9995
2 44400  97.7077  85.4458 0007813 206.7266 153.3589 15.62861869315086
Taurus 1
1 44530U 19059C   25068.86107492  .00014375  00000-0  27734-2 0  9993
2 44530  98.5931 204.0950 0009187 311.4283  48.6128 14.63553319290516
